カタログに戻る

CERES 1

運用中軍事LEO
NORAD 49464·PAYLOAD·🇫🇷 France

打ち上げ Nov 16, 2021 から Guiana Space Centre

Loading…

次のパス (今後24時間)

TLE

古いSource: Mike McCants

元期: Aug 26, 2026, 02:20 UTC

1 49464U 21105A   26238.09733964 0.00000334  00000-0  56294-4 0    01
2 49464  74.9991 218.2999 0012841 253.0055 107.0521 14.69464780    09

AllMySatでCERES 1をリアルタイム追跡

Download on the App Store